TimeCST,TemperatureF,Dew PointF,Humidity,Sea Level PressureIn,VisibilityMPH,Wind Direction,Wind SpeedMPH,Gust SpeedMPH,PrecipitationIn,Events,Conditions,WindDirDegrees,DateUTC
12:15 AM,23.0,19.4,86,29.96,10.0,South,17.3,-,N/A,,Clear,170,2013-01-07 06:15:00
12:35 AM,23.0,19.4,86,29.96,10.0,South,18.4,25.3,N/A,,Clear,180,2013-01-07 06:35:00
12:55 AM,26.6,21.2,80,29.94,10.0,South,20.7,-,N/A,,Clear,180,2013-01-07 06:55:00
1:15 AM,26.6,21.2,80,29.93,10.0,South,24.2,-,N/A,,Clear,190,2013-01-07 07:15:00
1:35 AM,28.4,21.2,74,29.91,10.0,South,23.0,29.9,N/A,,Clear,190,2013-01-07 07:35:00
1:55 AM,28.4,21.2,74,29.92,10.0,SSW,21.9,27.6,N/A,,Clear,200,2013-01-07 07:55:00
2:15 AM,28.4,21.2,74,29.94,10.0,SSW,19.6,-,N/A,,Clear,200,2013-01-07 08:15:00
2:35 AM,28.4,21.2,74,29.94,10.0,SSW,16.1,25.3,N/A,,Clear,210,2013-01-07 08:35:00
2:55 AM,28.4,21.2,74,29.96,10.0,SW,11.5,-,N/A,,Clear,230,2013-01-07 08:55:00
3:15 AM,26.6,21.2,80,29.95,10.0,SSW,9.2,-,N/A,,Clear,210,2013-01-07 09:15:00
3:35 AM,26.6,21.2,80,29.92,10.0,SSW,17.3,-,N/A,,Clear,200,2013-01-07 09:35:00
3:55 AM,26.6,21.2,80,29.91,10.0,South,15.0,20.7,N/A,,Clear,190,2013-01-07 09:55:00
4:15 AM,26.6,21.2,80,29.91,10.0,SSW,12.7,-,N/A,,Clear,200,2013-01-07 10:15:00
4:35 AM,28.4,23.0,80,29.89,10.0,SSW,18.4,-,N/A,,Clear,200,2013-01-07 10:35:00
4:55 AM,28.4,23.0,80,29.90,10.0,SSW,16.1,-,N/A,,Clear,210,2013-01-07 10:55:00
5:15 AM,28.4,23.0,80,29.90,10.0,SSW,15.0,23.0,N/A,,Clear,210,2013-01-07 11:15:00
5:35 AM,30.2,23.0,75,29.90,10.0,SSW,15.0,-,N/A,,Clear,210,2013-01-07 11:35:00
5:55 AM,28.4,23.0,80,29.92,10.0,SW,12.7,18.4,N/A,,Clear,220,2013-01-07 11:55:00
6:35 AM,28.4,23.0,80,29.92,10.0,SW,12.7,-,N/A,,Clear,220,2013-01-07 12:35:00
6:55 AM,28.4,23.0,80,29.92,10.0,SSW,12.7,-,N/A,,Clear,210,2013-01-07 12:55:00
7:15 AM,26.6,21.2,80,29.92,10.0,SW,12.7,-,N/A,,Clear,220,2013-01-07 13:15:00
7:35 AM,26.6,21.2,80,29.92,10.0,SSW,9.2,-,N/A,,Clear,210,2013-01-07 13:35:00
7:55 AM,24.8,21.2,86,29.93,10.0,SW,11.5,-,N/A,,Clear,230,2013-01-07 13:55:00
8:15 AM,24.8,21.2,86,29.94,10.0,SSW,10.4,-,N/A,,Clear,210,2013-01-07 14:15:00
8:35 AM,24.8,21.2,86,29.92,10.0,SSW,16.1,-,N/A,,Clear,200,2013-01-07 14:35:00
8:55 AM,24.8,21.2,86,29.95,10.0,SW,10.4,-,N/A,,Clear,220,2013-01-07 14:55:00
9:15 AM,24.8,21.2,86,29.96,10.0,SW,10.4,-,N/A,,Clear,230,2013-01-07 15:15:00
9:35 AM,26.6,21.2,80,29.96,10.0,SW,10.4,-,N/A,,Clear,220,2013-01-07 15:35:00
9:55 AM,26.6,23.0,86,29.96,10.0,SW,11.5,-,N/A,,Clear,230,2013-01-07 15:55:00
10:15 AM,28.4,23.0,80,29.96,10.0,SW,10.4,-,N/A,,Clear,220,2013-01-07 16:15:00
10:35 AM,26.6,24.8,93,29.99,10.0,WSW,8.1,-,N/A,,Clear,240,2013-01-07 16:35:00
10:55 AM,28.4,23.0,80,29.98,10.0,WSW,9.2,-,N/A,,Clear,240,2013-01-07 16:55:00
11:15 AM,26.6,23.0,86,29.97,10.0,WSW,6.9,-,N/A,,Clear,240,2013-01-07 17:15:00
11:35 AM,28.4,23.0,80,29.96,10.0,SW,9.2,-,N/A,,Clear,220,2013-01-07 17:35:00
11:55 AM,28.4,24.8,86,29.95,10.0,WSW,6.9,-,N/A,,Clear,240,2013-01-07 17:55:00
12:15 PM,28.4,24.8,86,29.95,10.0,WSW,6.9,-,N/A,,Clear,240,2013-01-07 18:15:00
12:35 PM,28.4,24.8,86,29.94,10.0,West,6.9,-,N/A,,Clear,260,2013-01-07 18:35:00
1:15 PM,30.2,26.6,86,29.94,10.0,WSW,6.9,-,N/A,,Clear,250,2013-01-07 19:15:00
1:35 PM,30.2,26.6,86,29.93,10.0,WSW,5.8,-,N/A,,Clear,250,2013-01-07 19:35:00
1:55 PM,30.2,26.6,86,29.94,-9999.0,West,5.8,-,N/A,,Clear,260,2013-01-07 19:55:00
2:15 PM,32.0,26.6,80,29.94,10.0,West,4.6,-,N/A,,Clear,260,2013-01-07 20:15:00
2:35 PM,32.0,26.6,80,29.94,10.0,SW,6.9,-,N/A,,Clear,230,2013-01-07 20:35:00
2:55 PM,30.2,26.6,86,29.95,10.0,WSW,5.8,-,N/A,,Clear,240,2013-01-07 20:55:00
3:15 PM,32.0,26.6,80,29.95,10.0,SW,5.8,-,N/A,,Clear,230,2013-01-07 21:15:00
3:35 PM,32.0,26.6,80,29.96,10.0,SW,8.1,-,N/A,,Clear,230,2013-01-07 21:35:00
3:55 PM,30.2,28.4,93,29.96,10.0,SW,6.9,-,N/A,,Clear,230,2013-01-07 21:55:00
4:15 PM,30.2,28.4,93,29.96,10.0,SW,5.8,-,N/A,,Clear,230,2013-01-07 22:15:00
4:35 PM,30.2,26.6,86,29.96,10.0,SW,4.6,-,N/A,,Clear,220,2013-01-07 22:35:00
5:15 PM,26.6,26.6,100,29.97,10.0,SW,3.5,-,N/A,,Clear,230,2013-01-07 23:15:00
5:35 PM,26.6,26.6,100,29.97,10.0,SW,3.5,-,N/A,,Clear,220,2013-01-07 23:35:00
5:55 PM,24.8,24.8,100,29.96,10.0,WSW,3.5,-,N/A,,Freezing Rain,240,2013-01-07 23:55:00
6:15 PM,-9999,-9999,N/A,29.97,5.0,SW,3.5,-,N/A,,Light Drizzle,220,2013-01-08 00:15:00
6:35 PM,21.2,21.2,100,29.97,4.0,Calm,Calm,-,N/A,,Freezing Rain,0,2013-01-08 00:35:00
6:55 PM,-9999,-9999,N/A,29.97,5.0,Calm,Calm,-,N/A,,Light Drizzle,0,2013-01-08 00:55:00
7:15 PM,-9999,-9999,N/A,29.97,0.2,Calm,Calm,-,N/A,,Light Drizzle,0,2013-01-08 01:15:00
7:35 PM,-9999,-9999,N/A,29.97,0.2,Calm,Calm,-,N/A,,Light Drizzle,0,2013-01-08 01:35:00
7:55 PM,17.6,17.6,100,29.97,0.5,East,4.6,-,N/A,,Freezing Rain,80,2013-01-08 01:55:00
8:15 PM,17.6,17.6,100,29.97,1.0,ESE,5.8,-,N/A,,Freezing Rain,110,2013-01-08 02:15:00
8:35 PM,17.6,17.6,100,29.97,0.2,ESE,9.2,-,N/A,,Freezing Rain,120,2013-01-08 02:35:00
8:55 PM,15.8,15.8,100,29.98,1.8,ESE,5.8,-,N/A,,Freezing Rain,110,2013-01-08 02:55:00
9:15 PM,15.8,15.8,100,29.97,2.5,Calm,Calm,-,N/A,,Freezing Rain,0,2013-01-08 03:15:00
9:35 PM,15.8,15.8,100,29.96,0.2,Calm,Calm,-,N/A,,Freezing Rain,0,2013-01-08 03:35:00
9:55 PM,14.0,14.0,100,29.96,0.2,Calm,Calm,-,N/A,,Freezing Rain,0,2013-01-08 03:55:00
10:15 PM,12.2,12.2,100,29.97,3.0,East,4.6,-,N/A,,Freezing Rain,100,2013-01-08 04:15:00
10:35 PM,10.4,10.4,100,29.96,0.2,ESE,4.6,-,N/A,,Freezing Rain,120,2013-01-08 04:35:00
10:55 PM,10.4,10.4,100,29.96,1.8,East,4.6,-,N/A,,Freezing Rain,90,2013-01-08 04:55:00
11:15 PM,10.4,8.6,92,29.96,0.2,NE,4.6,-,N/A,,Freezing Rain,50,2013-01-08 05:15:00
11:35 PM,10.4,10.4,100,29.95,0.2,East,3.5,-,N/A,Snow,Light Snow,100,2013-01-08 05:35:00
11:55 PM,10.4,8.6,92,29.94,0.2,Calm,Calm,-,N/A,Snow,Light Snow,0,2013-01-08 05:55:00